This is the latest recevied weather packets stored in our database for station/object HB9SZU-6. If no packets are shown the sender has not sent any weather packets the latest 10 day(s).
| Time | Temp. | Humidity | Pressure | Rain* | Wind** | Luminosity | Snow |
|---|---|---|---|---|---|---|---|
| 1777520890 | 14.44° C | 76% | 1025.9 hPa | 0 mm | - | - | - |
| 1777519990 | 15.56° C | 73% | 1025.9 hPa | 0 mm | - | - | - |
| 1777519090 | 15.56° C | 73% | 1025.9 hPa | 0 mm | - | - | - |
| 1777518190 | 15.56° C | 73% | 1025.9 hPa | 0 mm | - | - | - |
| 1777517290 | 15.56° C | 73% | 1025.8 hPa | 0 mm | - | - | - |
| 1777516389 | 15.56° C | 72% | 1025.8 hPa | 0 mm | - | - | - |
| 1777515490 | 16.11° C | 71% | 1025.7 hPa | 0 mm | - | - | - |
| 1777514590 | 16.11° C | 71% | 1025.6 hPa | 0 mm | - | - | - |
| 1777513690 | 16.11° C | 71% | 1025.6 hPa | 0 mm | - | - | - |
| 1777511890 | 16.11° C | 72% | 1025.4 hPa | 0 mm | - | - | - |
| 1777508290 | 16.67° C | 74% | 1025.1 hPa | 0 mm | - | - | - |
| 1777506490 | 16.67° C | 73% | 1024.5 hPa | 0 mm | - | - | - |
| 1777501990 | 16.67° C | 73% | 1024.1 hPa | 0 mm | - | - | - |
| 1777500190 | 16.67° C | 72% | 1023.9 hPa | 0 mm | - | - | - |
| 1777498390 | 17.22° C | 71% | 1023.1 hPa | 0 mm | - | - | - |
| 1777497490 | 17.22° C | 71% | 1023.1 hPa | 0 mm | - | - | - |
| 1777496590 | 17.22° C | 71% | 1023.1 hPa | 0 mm | - | - | - |
| 1777494790 | 17.22° C | 71% | 1023.2 hPa | 0 mm | - | - | - |
| 1777493890 | 17.78° C | 70% | 1023.1 hPa | 0 mm | - | - | - |
| 1777492990 | 17.78° C | 70% | 1022.9 hPa | 0 mm | - | - | - |
| 1777491190 | 18.33° C | 68% | 1021.8 hPa | 0 mm | - | - | - |
| 1777490291 | 18.33° C | 68% | 1021.8 hPa | 0 mm | - | - | - |
| 1777485791 | 18.89° C | 67% | 1021.2 hPa | 0 mm | - | - | - |
| 1777483990 | 20° C | 67% | 1021 hPa | 0 mm | - | - | - |
| 1777483090 | 20° C | 67% | 1021 hPa | 0 mm | - | - | - |
* Rain latest hour (hover to see other rain measurements)
** Current wind speed in m/s (hover to see current wind gust speed)